This is the latest recevied weather packets stored in our database for station/object N5XJB. If no packets are shown the sender has not sent any weather packets the latest 1 day(s).
| Time | Temp. | Humidity | Pressure | Rain* | Wind** | Luminosity | Snow |
|---|---|---|---|---|---|---|---|
| 1778030041 | 26.67° C | 82% | 1008 hPa | 0 mm | 0.45 m/s, 168° | 0 W/m² | - |
| 1778029738 | 26.67° C | 82% | 1008 hPa | 0 mm | 0.89 m/s, 180° | 1 W/m² | - |
| 1778029436 | 27.22° C | 82% | 1008 hPa | 0 mm | 0.89 m/s, 150° | 1 W/m² | - |
| 1778029133 | 27.22° C | 81% | 1008 hPa | 0 mm | 0.89 m/s, 336° | 3 W/m² | - |
| 1778028830 | 27.22° C | 81% | 1008 hPa | 0 mm | 0.89 m/s, 282° | 4 W/m² | - |
| 1778028525 | 27.22° C | 81% | 1008 hPa | 0 mm | 0.89 m/s, 93° | 5 W/m² | - |
| 1778028223 | 27.22° C | 81% | 1008 hPa | 0 mm | 0.89 m/s, 60° | 8 W/m² | - |
| 1778027919 | 27.22° C | 81% | 1008 hPa | 0 mm | 0.89 m/s, 156° | 12 W/m² | - |
| 1778027615 | 27.22° C | 81% | 1008 hPa | 0 mm | 0.89 m/s, 48° | 15 W/m² | - |
| 1778027312 | 27.22° C | 81% | 1007.7 hPa | 0 mm | 1.34 m/s, 192° | 23 W/m² | - |
| 1778027008 | 27.78° C | 80% | 1007.7 hPa | 0 mm | 0.89 m/s, 108° | 30 W/m² | - |
| 1778026704 | 27.78° C | 80% | 1007.7 hPa | 0 mm | 0.45 m/s, 180° | 29 W/m² | - |
| 1778026401 | 27.78° C | 80% | 1008 hPa | 0 mm | 1.34 m/s, 133° | 29 W/m² | - |
| 1778026098 | 27.78° C | 80% | 1008 hPa | 0 mm | 0.89 m/s, 204° | 41 W/m² | - |
| 1778025796 | 27.78° C | 79% | 1008 hPa | 0 mm | 0.89 m/s, 120° | 41 W/m² | - |
| 1778025492 | 28.33° C | 78% | 1007.7 hPa | 0 mm | 0.89 m/s, 288° | 41 W/m² | - |
| 1778025190 | 28.33° C | 78% | 1007.7 hPa | 0 mm | 0.89 m/s, 288° | 41 W/m² | - |
| 1778024887 | 28.33° C | 78% | 1007.7 hPa | 0 mm | 0.89 m/s, 132° | 43 W/m² | - |
| 1778024585 | 27.78° C | 78% | 1007.3 hPa | 0 mm | 0 m/s | 61 W/m² | - |
| 1778024281 | 27.78° C | 77% | 1007.7 hPa | 0 mm | 0.89 m/s, 306° | 67 W/m² | - |
| 1778023979 | 27.78° C | 77% | 1007.7 hPa | 0 mm | 0.89 m/s, 96° | 105 W/m² | - |
| 1778023676 | 27.78° C | 77% | 1007.7 hPa | 0 mm | 0.89 m/s, 132° | 98 W/m² | - |
| 1778023374 | 28.33° C | 76% | 1007.7 hPa | 0 mm | 0.89 m/s, 186° | 81 W/m² | - |
| 1778023070 | 28.33° C | 76% | 1007.7 hPa | 0 mm | 0 m/s | 106 W/m² | - |
| 1778022769 | 28.33° C | 75% | 1007.7 hPa | 0 mm | 0.89 m/s, 133° | 100 W/m² | - |
* Rain latest hour (hover to see other rain measurements)
** Current wind speed in m/s (hover to see current wind gust speed)